TimePDT,TemperatureF,Dew PointF,Humidity,Sea Level PressureIn,VisibilityMPH,Wind Direction,Wind SpeedMPH,Gust SpeedMPH,PrecipitationIn,Events,Conditions,WindDirDegrees,DateUTC
1:52 AM,66.0,41.0,40,29.90,10.0,WSW,9.2,-,N/A,,Clear,250,2013-05-07 08:52:00
2:52 AM,66.0,39.9,38,29.90,10.0,SW,10.4,-,N/A,,Clear,230,2013-05-07 09:52:00
3:52 AM,63.0,39.0,41,29.90,10.0,SW,5.8,-,N/A,,Clear,220,2013-05-07 10:52:00
4:52 AM,63.0,37.9,40,29.91,10.0,SSW,5.8,-,N/A,,Clear,210,2013-05-07 11:52:00
5:52 AM,61.0,41.0,48,29.92,10.0,South,6.9,-,N/A,,Mostly Cloudy,180,2013-05-07 12:52:00
6:52 AM,62.1,43.0,50,29.94,10.0,South,8.1,-,N/A,,Overcast,170,2013-05-07 13:52:00
7:52 AM,64.9,45.0,48,29.95,10.0,South,8.1,-,N/A,,Overcast,170,2013-05-07 14:52:00
8:52 AM,68.0,43.0,40,29.96,10.0,SSW,5.8,-,N/A,,Overcast,210,2013-05-07 15:52:00
9:52 AM,72.0,42.1,34,29.96,10.0,West,10.4,18.4,N/A,,Mostly Cloudy,260,2013-05-07 16:52:00
10:52 AM,73.0,41.0,31,29.95,10.0,SSW,10.4,20.7,N/A,,Overcast,210,2013-05-07 17:52:00
11:52 AM,77.0,37.9,24,29.94,10.0,SW,18.4,25.3,N/A,,Partly Cloudy,230,2013-05-07 18:52:00
12:52 PM,79.0,36.0,21,29.91,10.0,SW,17.3,23.0,N/A,,Partly Cloudy,230,2013-05-07 19:52:00
1:52 PM,79.0,37.9,23,29.91,10.0,SW,23.0,32.2,N/A,,Partly Cloudy,230,2013-05-07 20:52:00
2:52 PM,78.1,39.9,25,29.89,10.0,SW,19.6,26.5,N/A,,Mostly Cloudy,220,2013-05-07 21:52:00
3:52 PM,79.0,39.0,24,29.87,10.0,SW,17.3,-,N/A,,Partly Cloudy,220,2013-05-07 22:52:00
4:52 PM,79.0,39.0,24,29.86,10.0,WSW,19.6,-,N/A,,Clear,240,2013-05-07 23:52:00
5:52 PM,77.0,37.0,24,29.86,10.0,SW,17.3,-,N/A,,Clear,230,2013-05-08 00:52:00
6:52 PM,75.0,39.0,27,29.85,10.0,SW,16.1,-,N/A,,Clear,220,2013-05-08 01:52:00
7:52 PM,73.0,39.9,30,29.87,10.0,SW,13.8,-,N/A,,Clear,220,2013-05-08 02:52:00
8:52 PM,71.1,41.0,34,29.88,10.0,SSW,8.1,-,N/A,,Clear,200,2013-05-08 03:52:00
9:52 PM,69.1,45.0,42,29.90,10.0,WSW,13.8,-,N/A,,Clear,240,2013-05-08 04:52:00
10:52 PM,66.9,45.0,45,29.91,10.0,SW,13.8,-,N/A,,Clear,230,2013-05-08 05:52:00
11:52 PM,66.9,45.0,45,29.91,10.0,SSW,5.8,-,N/A,,Clear,210,2013-05-08 06:52:00